Weather reports worldwide

Advertisment
Marina Di Ginosa, Italy (16325): temperature & dewpoint: 10.11.2018 05:00:00 - 16.11.2018 05:00:00 (CET)Marina Di Ginosa, Italy (16325): wind speed: 10.11.2018 05:00:00 - 16.11.2018 05:00:00 (CET)Marina Di Ginosa, Italy (16325): wind direction: 10.11.2018 05:00:00 - 16.11.2018 05:00:00 (CET)Marina Di Ginosa, Italy (16325): reduced air pressure: 10.11.2018 05:00:00 - 16.11.2018 05:00:00 (CET)Marina Di Ginosa, Italy (16325): visibility: 10.11.2018 05:00:00 - 16.11.2018 05:00:00 (CET)
Date & Time tt [°C] td [°C] ff [km/h] ff [kn] dd ppp [hPa] vv [km]
16.11.2018 05:00:00 - - - - - - -
16.11.2018 04:00:00 12,8 9,6 9 5 NNW 1019,5 15
16.11.2018 03:00:00 13,0 9,0 8 4 NW - 10
16.11.2018 02:00:00 12,0 8,0 8 4 WNW - 10
16.11.2018 01:00:00 12,2 9,2 9 5 WNW 1019,9 15
16.11.2018 00:00:00 12,0 9,0 11 6 WNW - 10
15.11.2018 23:00:00 12,0 10,0 8 4 N - 10
15.11.2018 22:00:00 12,0 9,2 9 5 NNW 1020,2 20
15.11.2018 21:00:00 13,0 10,0 8 4 N - 10
15.11.2018 20:00:00 13,0 10,0 5 3 N - 10
15.11.2018 19:00:00 13,6 9,5 8 4 N 1020,2 35
15.11.2018 18:00:00 15,0 9,0 8 4 N - 10
15.11.2018 17:00:00 16,0 8,0 8 4 N - 10
15.11.2018 16:00:00 18,2 7,6 4 2 N 1020,1 35
15.11.2018 15:00:00 19,0 8,0 5 3 N - 10
15.11.2018 14:00:00 19,0 9,0 5 3 N - 10
15.11.2018 13:00:00 19,8 10,0 9 5 N 1020,8 30
15.11.2018 12:00:00 20,0 10,0 8 4 N - 10
15.11.2018 11:00:00 19,0 11,0 8 4 NW - 10
15.11.2018 10:00:00 17,8 12,3 0 0 N 1022,0 20
15.11.2018 09:00:00 16,0 12,0 0 0 N - 10
15.11.2018 08:00:00 14,0 12,0 4 2 NW - 10
15.11.2018 07:00:00 12,8 10,9 5 3 NW 1021,8 15
15.11.2018 06:00:00 14,0 12,0 11 6 NW - 10
15.11.2018 05:00:00 14,0 12,0 15 8 NW - 10
15.11.2018 04:00:00 13,6 11,7 8 4 NW 1021,4 20
15.11.2018 03:00:00 14,0 12,0 11 6 NW - 10
15.11.2018 02:00:00 14,0 12,0 15 8 NW - 10
15.11.2018 01:00:00 15,0 12,5 13 7 NW 1021,9 20
15.11.2018 00:00:00 14,0 12,0 9 5 NW - 10
14.11.2018 23:00:00 15,0 13,0 13 7 NW - 10
14.11.2018 22:00:00 14,0 11,5 11 6 NW 1023,0 20
14.11.2018 21:00:00 14,0 11,0 11 6 NW - 10
14.11.2018 20:00:00 14,0 11,0 11 6 NW - 10
14.11.2018 19:00:00 13,8 11,3 13 7 NNW 1022,4 20
14.11.2018 18:00:00 15,0 12,0 15 8 NNW - 10
14.11.2018 17:00:00 17,0 12,0 13 7 NNW - 10
14.11.2018 16:00:00 18,8 11,6 13 7 NNW 1022,9 20
14.11.2018 15:00:00 21,0 12,0 15 8 NW - 10
14.11.2018 14:00:00 20,0 12,0 13 7 NW - 10
14.11.2018 13:00:00 19,8 11,8 11 6 NW 1024,3 20
14.11.2018 12:00:00 20,0 13,0 0 0 N - 10
14.11.2018 11:00:00 18,0 12,0 11 6 NNW - 10
14.11.2018 10:00:00 16,0 11,4 9 5 NNW 1025,3 20
14.11.2018 09:00:00 14,0 11,0 5 3 NNW - 10
14.11.2018 08:00:00 12,0 10,0 5 3 NNW - 10
14.11.2018 07:00:00 9,8 8,1 0 0 N 1024,6 20
14.11.2018 06:00:00 10,0 9,0 0 0 N - 10
14.11.2018 05:00:00 10,0 9,0 4 2 N - 10
14.11.2018 04:00:00 9,6 8,2 2 1 NNW 1024,6 20
14.11.2018 03:00:00 10,0 8,0 4 2 NNW - 10
14.11.2018 02:00:00 10,0 9,0 0 0 N - 10
14.11.2018 01:00:00 10,8 8,9 2 1 NW 1025,5 20
14.11.2018 00:00:00 11,0 9,0 2 1 WNW - 10
13.11.2018 23:00:00 12,0 10,0 0 0 N - 10
13.11.2018 22:00:00 11,8 10,2 0 0 N 1025,7 20
13.11.2018 21:00:00 12,0 11,0 0 0 N - 10
13.11.2018 20:00:00 13,0 11,0 0 0 N - 10
13.11.2018 19:00:00 14,8 10,8 0 0 N 1025,6 20
13.11.2018 18:00:00 14,0 12,0 0 0 N - 10
13.11.2018 17:00:00 15,0 12,0 0 0 N - 10
13.11.2018 16:00:00 19,0 13,2 0 0 N 1024,1 20
13.11.2018 15:00:00 21,0 12,0 0 0 N - 10
13.11.2018 14:00:00 20,0 12,0 11 6 S - 10
13.11.2018 13:00:00 19,6 9,8 0 0 N 1020,1 20
13.11.2018 12:00:00 20,0 12,0 0 0 N - 10
13.11.2018 11:00:00 19,0 12,0 4 2 W - 10
13.11.2018 10:00:00 15,0 11,2 11 6 WNW 1027,2 10
13.11.2018 09:00:00 12,0 10,0 11 6 WNW - 10
13.11.2018 08:00:00 11,0 9,0 9 5 WNW - 10
13.11.2018 07:00:00 10,0 8,8 11 6 NW 1026,3 12
13.11.2018 06:00:00 10,0 9,0 8 4 NW - 8
13.11.2018 05:00:00 10,0 9,0 0 0 N - 4,0
13.11.2018 04:00:00 10,8 9,6 0 0 N 1026,4 4,0
13.11.2018 03:00:00 11,0 10,0 8 4 NW - 5
13.11.2018 02:00:00 11,0 10,0 5 3 NW - 6
13.11.2018 01:00:00 11,2 9,6 8 4 WNW 1026,3 8
13.11.2018 00:00:00 12,0 10,0 0 0 N - 8
12.11.2018 23:00:00 12,0 11,0 5 3 NW - 10
12.11.2018 22:00:00 13,0 11,4 0 0 N 1026,0 10
12.11.2018 21:00:00 13,0 12,0 5 3 NW - 10
12.11.2018 20:00:00 14,0 13,0 5 3 W - 10
12.11.2018 19:00:00 14,8 13,5 8 4 W 1025,4 15
12.11.2018 18:00:00 15,0 13,0 8 4 WSW - 10
12.11.2018 17:00:00 17,0 15,0 9 5 WSW - 10
12.11.2018 16:00:00 19,2 15,3 8 4 WSW 1025,4 20
12.11.2018 15:00:00 21,0 16,0 8 4 WSW - 10
12.11.2018 14:00:00 20,0 15,0 5 3 SW - 10
12.11.2018 13:00:00 20,0 15,4 5 3 SW 1025,9 20
12.11.2018 12:00:00 20,0 14,0 5 3 SW - 10
12.11.2018 11:00:00 18,0 14,0 8 4 SW - 10
12.11.2018 10:00:00 15,4 13,8 0 0 N 1025,8 2,0
12.11.2018 09:00:00 14,0 13,0 2 1 S - 0,5
12.11.2018 08:00:00 13,0 12,0 0 0 N - 0,9
12.11.2018 07:00:00 12,8 12,0 0 0 N 1024,7 0,3
12.11.2018 06:00:00 13,0 12,0 0 0 N - 10
12.11.2018 05:00:00 13,0 12,0 0 0 N - 10
12.11.2018 04:00:00 13,0 12,4 0 0 N 1024,4 10
12.11.2018 03:00:00 13,0 12,0 0 0 N - 10
12.11.2018 02:00:00 13,0 12,0 0 0 N - 10
12.11.2018 01:00:00 13,0 12,2 0 0 N 1023,5 12
12.11.2018 00:00:00 14,0 13,0 0 0 N - 10
11.11.2018 23:00:00 14,0 13,0 0 0 N - 10
11.11.2018 22:00:00 14,0 13,1 0 0 N 1023,2 10
11.11.2018 21:00:00 15,0 14,0 0 0 N - 10
11.11.2018 20:00:00 15,0 14,0 0 0 N - 10
11.11.2018 19:00:00 16,0 14,9 0 0 N 1021,8 15
11.11.2018 18:00:00 16,0 15,0 0 0 N - 10
11.11.2018 17:00:00 18,0 16,0 0 0 N - 10
11.11.2018 16:00:00 20,4 14,1 0 0 N 1020,8 20
11.11.2018 15:00:00 21,0 15,0 0 0 N - 10
11.11.2018 14:00:00 20,0 15,0 5 3 SE - 10
11.11.2018 13:00:00 21,0 15,8 5 3 E 1020,4 15
11.11.2018 12:00:00 21,0 16,0 5 3 ESE - 10
11.11.2018 11:00:00 19,0 16,0 8 4 NW - 10
11.11.2018 10:00:00 16,0 14,4 8 4 NW 1019,9 12
11.11.2018 09:00:00 14,0 13,0 9 5 NW - 10
11.11.2018 08:00:00 13,0 12,0 0 0 N - 0,5
11.11.2018 07:00:00 12,2 11,4 0 0 N 1018,4 0,2
11.11.2018 06:00:00 12,0 11,0 0 0 N - -
11.11.2018 05:00:00 12,0 11,0 0 0 N - -
11.11.2018 04:00:00 11,8 11,0 0 0 N 1017,5 10
11.11.2018 03:00:00 12,0 11,0 0 0 N - 10
11.11.2018 02:00:00 12,0 12,0 0 0 N - 10
11.11.2018 01:00:00 12,2 11,4 0 0 N 1017,2 10
11.11.2018 00:00:00 13,0 12,0 0 0 N - 10
10.11.2018 23:00:00 13,0 12,0 0 0 N - 10
10.11.2018 22:00:00 13,2 12,4 0 0 N 1017,2 10
10.11.2018 21:00:00 14,0 13,0 0 0 N - 10
10.11.2018 20:00:00 15,0 14,0 0 0 N - 10
10.11.2018 19:00:00 15,2 14,2 8 4 S 1015,4 18
10.11.2018 18:00:00 16,0 14,0 5 3 S - 10
10.11.2018 17:00:00 17,0 15,0 0 0 N - 10
10.11.2018 16:00:00 19,8 15,7 8 4 S 1015,4 20
10.11.2018 15:00:00 21,0 16,0 5 3 ESE - 10
10.11.2018 14:00:00 21,0 15,0 8 4 E - 10
10.11.2018 13:00:00 20,8 13,7 9 5 S 1016,4 20
10.11.2018 12:00:00 21,0 15,0 8 4 S - 10
10.11.2018 11:00:00 19,0 16,0 5 3 S - 10
10.11.2018 10:00:00 16,0 13,7 4 2 SSW 1017,2 20
10.11.2018 09:00:00 13,0 12,0 5 3 SSW - 10
10.11.2018 08:00:00 11,0 10,0 4 2 - - 10
10.11.2018 07:00:00 11,2 10,3 4 2 N 1017,2 25
10.11.2018 06:00:00 - - - - - - -
10.11.2018 05:00:00 11,0 10,0 8 4 SW - 10

tt = temperature
td = dewpoint
ff = wind speed
dd = wind direction
ppp = reduced air pressure
vv = visibility

Next stations